Regional Weather Roundup
Issued by NWS

Home | Current Version | Previous Version | Text Only | Print | Product List | Glossary Off
Versions: 1 2 3 4 5 6 7 8 9 10 11 12 13 14 15 16 17 18 19 20 21 22 23 24 25 26 27 28 29 30 31 32 33 34 35 36 37 38 39 40 41 42 43 44 45 46 47 48 49 50

000
ASUS43 KIND 301809
RWRIN

WEATHER ROUNDUP FOR INDIANA
NATIONAL WEATHER SERVICE INDIANAPOLIS IN
200 PM EDT SUN AUG 30 2015

NOTE: "FAIR" INDICATES FEW OR NO CLOUDS BELOW 12,000 FEET WITH NO
SIGNIFICANT WEATHER AND/OR OBSTRUCTIONS TO VISIBILITY.

* - STATION DOES NOT REPORT WEATHER SUCH AS PRECIPITATION OR FOG.

+ - STATION NOT QUALITY CONTROLLED BY THE NATIONAL WEATHER SERVICE.
    USE DATA WITH CAUTION...ESPECIALLY DEWPOINT AND RELATIVE
    HUMIDITY OBSERVATIONS.

INZ001>003-010>013-019-020-301900-
NORTHWEST INDIANA

CITY           SKY/WX    TMP DP  RH WIND       PRES   REMARKS
GARY /AIRPORT/ PTSUNNY   73  63  68 CALM      30.08F
KNOX *+        CLOUDY    72  68  88 CALM      30.08S
LA PORTE +     CLOUDY    75  72  88 SW3       30.08F FOG
MICHIGAN CITY+ CLOUDY    72  61  68 N6        30.08F
MONTICELLO +   PTSUNNY   80  70  73 W7        30.05F
6HR MIN TEMP:  67; 6HR MAX TEMP:  80;

RENSSELAER +   CLOUDY    73  72  94 NW3       30.08F FOG
VALPARAISO     CLOUDY    75  68  78 W5        30.08F
6HR MIN TEMP:  67; 6HR MAX TEMP:  76;


$$

LMZ046-743>745-301900-
SOUTHERN LAKE MICHIGAN

STATION/POSITION TIME  TEMP    WIND        PRES    WAVE
                       AIR SEA DIR/SP/G            HT
                 (UTC) (F)     (DEG/KT/KT) (MB)    (FT)
BURNS HARBOR     1700   68     330/  6/  7 1019.3S
MICHIGAN CITY    1700   70     280/  5/  6   N/A
5NW MICH CITY    1800   69 71  300/  6/  8   N/A     1

$$

INZ004-005-014>016-021>024-301900-
NORTH CENTRAL INDIANA

CITY           SKY/WX    TMP DP  RH WIND       PRES   REMARKS
ELKHART        CLOUDY    72  68  88 CALM      30.08  FOG
GOSHEN         PTSUNNY   77  70  79 SW5       30.06F
6HR MIN TEMP:  67; 6HR MAX TEMP:  77;

LOGANSPORT +   MOSUNNY   82  61  47 SW8       30.07F
PERU/GRISSOM   SUNNY     83  67  59 SW10      30.05F
6HR MIN TEMP:  66; 6HR MAX TEMP:  83;

ROCHESTER +    PTSUNNY   86  68  54 S9        30.07S
SOUTH BEND     CLOUDY    74  68  81 S6        30.08S
6HR MIN TEMP:  67; 6HR MAX TEMP:  74;

WARSAW +       PTSUNNY   81  68  65 W7        30.06F

$$

INZ006>009-017-018-025>027-301900-
NORTHEAST INDIANA

CITY           SKY/WX    TMP DP  RH WIND       PRES   REMARKS
ANGOLA *+      PTSUNNY   82  72  69 SW9       30.06F
AUBURN +       MOSUNNY   82  64  54 SW6       30.07F
FORT WAYNE     MOSUNNY   82  67  60 SW10      30.07F
6HR MIN TEMP:  66; 6HR MAX TEMP:  82;

HUNTINGTON +   SUNNY     83  59  43 SW9       30.06F
6HR MIN TEMP:  66; 6HR MAX TEMP:  83;


$$

INZ028-029-035-036-043>045-051>053-301900-
WEST CENTRAL INDIANA

CITY           SKY/WX    TMP DP  RH WIND       PRES   REMARKS
CRAWFORDSVL +  PTSUNNY   78  61  55 SW8       30.08F
6HR MIN TEMP:  60; 6HR MAX TEMP:  80;

GREENCASTLE +  CLOUDY    82  61  47 S7        30.09S
LAFAYETTE      MOSUNNY   83  66  56 SW9       30.05F
6HR MIN TEMP:  65; 6HR MAX TEMP:  83;

TERRE HAUTE    PTSUNNY   84  64  50 SW12G18   30.07F
6HR MIN TEMP:  62; 6HR MAX TEMP:  85;


$$

INZ030>032-037>040-046>048-054>057-064-065-301900-
CENTRAL INDIANA

CITY           SKY/WX    TMP DP  RH WIND       PRES   REMARKS
COLUMBUS       SUNNY     82  63  51 CALM      30.08
FRANKFORT +    SUNNY     83  67  58 S8        30.09F
GREENWOOD *+   SUNNY     84  63  48 W8        30.09F
INDIANAPOLIS   MOSUNNY   84  63  49 SW9       30.07F
6HR MIN TEMP:  70; 6HR MAX TEMP:  84;

-EAGLE CREEK   MOSUNNY   83  64  52 W9        30.07F
6HR MIN TEMP:  67; 6HR MAX TEMP:  84;

KOKOMO *+      PTSUNNY   84  66  54 SW9       30.06F
6HR MIN TEMP:  64; 6HR MAX TEMP:  84;

MARION +       MOSUNNY   83  55  38 SW7       30.08F
MT COMFORT *+  SUNNY     86  50  28 S8        30.08F
SHELBYVILLE    MOSUNNY   85  67  54 S8        30.07F
6HR MIN TEMP:  72; 6HR MAX TEMP:  86;

ZIONSVILLE +   MOSUNNY   84  64  50 SW9       30.08F
6HR MIN TEMP:  65; 6HR MAX TEMP:  84;


$$

INZ033-034-041-042-049-050-058-059-301900-
EAST CENTRAL INDIANA

CITY           SKY/WX    TMP DP  RH WIND       PRES   REMARKS
MUNCIE         MOSUNNY   82  66  58 SW10      30.08F
6HR MIN TEMP:  68; 6HR MAX TEMP:  82;


$$

INZ060-061-067>069-081>083-085>088-301900-
SOUTHWEST INDIANA

CITY           SKY/WX    TMP DP  RH WIND       PRES   REMARKS
EVANSVILLE     MOSUNNY   84  68  58 SW7       30.08F
6HR MIN TEMP:  73; 6HR MAX TEMP:  84;

HUNTINGBURG *+ PTSUNNY   84  70  61 S6        30.08F
6HR MIN TEMP:  70; 6HR MAX TEMP:  84;

WASHINGTON +   CLOUDY    84  60  44 W6        30.07F
6HR MIN TEMP:  68; 6HR MAX TEMP:  86;


$$

INZ062-063-066-070>080-084-089>092-301900-
SOUTH CENTRAL AND SOUTHEAST INDIANA

CITY           SKY/WX    TMP DP  RH WIND       PRES   REMARKS
BLOOMINGTON    PTSUNNY   84  66  54 SW5       30.09F
6HR MIN TEMP:  70; 6HR MAX TEMP:  84;

MADISON *+     MOSUNNY   81  68  65 CALM      30.12F
NORTH VERNON + MOSUNNY   84  66  54 W3        30.10F
SEYMOUR +      SUNNY     88  66  48 S3        30.08F

$$



USA.gov is the U.S. government's official web portal to all federal, state and local government web resources and services.